Location: Albany
(35.0000°S, 118.0000°E)
Time: 12:43:39
(UTC-04:00)

SJ-6B - Visible Passes

Search period start: 18 April 2015 00:00
Search period end: 28 April 2015 00:00
Orbit: 517 x 590 km, 97.8° (Epoch: 17 April)

Date Brightness Start Highest point End Pass type
(mag) Time Alt. Az. Time Alt. Az. Time Alt. Az.
18 Apr 3.4 06:12:48 10° SSE 06:16:21 35° E 06:19:56 10° NNE visible
18 Apr 5.9 07:48:54 10° SW 07:50:54 13° WSW 07:52:43 10° W visible
18 Apr 5.9 16:56:32 10° E 16:58:33 14° ESE 17:00:43 10° SE visible
19 Apr 3.5 06:09:40 10° SE 06:13:08 31° E 06:16:38 10° NNE visible
19 Apr 5.9 07:45:27 10° SW 07:47:42 15° WSW 07:49:49 10° WNW visible
19 Apr 6.0 16:53:39 10° E 16:55:21 13° ESE 16:57:14 10° SE visible
20 Apr 3.6 06:06:31 10° SE 06:09:53 29° E 06:13:19 10° NNE visible
20 Apr 5.8 07:42:01 10° SSW 07:44:30 16° WSW 07:46:52 10° WNW visible
20 Apr 6.1 16:50:51 10° E 16:52:09 12° ESE 16:53:39 10° SE visible
21 Apr 3.8 06:03:23 10° SE 06:06:38 26° E 06:09:59 10° NNE visible
21 Apr 5.6 07:38:36 10° SSW 07:41:18 18° WSW 07:43:53 10° WNW visible
21 Apr 6.2 16:48:16 10° ESE 16:48:57 11° ESE 16:49:52 10° SE visible
22 Apr 3.9 06:00:15 10° SE 06:03:24 24° E 06:06:38 10° NNE visible
22 Apr 5.5 07:35:13 10° SSW 07:38:06 19° WSW 07:40:52 10° WNW visible
23 Apr 4.0 05:57:07 10° SE 06:00:08 22° E 06:03:15 10° NNE visible
23 Apr 5.3 07:31:51 10° SSW 07:34:52 21° WSW 07:37:49 10° WNW visible
24 Apr 4.2 05:53:59 10° SE 05:56:51 20° E 05:59:51 10° NE visible
24 Apr 5.2 07:28:28 10° SSW 07:31:37 23° WSW 07:34:43 10° NW visible
24 Apr 2.8 18:09:48 10° N 18:13:39 64° W 18:17:28 10° SSW visible
25 Apr 5.0 07:25:05 10° SSW 07:28:23 25° WSW 07:31:38 10° NW visible
25 Apr 2.7 18:06:32 10° N 18:10:22 71° WNW 18:14:14 10° SSW visible
26 Apr 4.9 07:21:44 10° SSW 07:25:08 28° WSW 07:28:31 10° NW visible
26 Apr 2.7 18:03:15 10° N 18:07:06 79° WNW 18:10:58 10° SSW visible
27 Apr 4.7 07:18:22 10° S 07:21:53 31° WSW 07:25:22 10° NW visible
27 Apr 2.7 17:59:58 10° NNE 18:03:49 88° WNW 18:07:41 10° SSW visible
